Houston Clover, TX

1:05 AM CDT on October 23, 2019 (GMT -0500)
Clover

Weather History for KLVJ - September, 2019

Change the Weather History Date:

Tuesday, September 17, 2019

  Actual Average (WUND) Record (WUND)
Temperature  
Mean Temperature 78 °F -  
Max Temperature 80 °F - - (-1)
Min Temperature 75 °F - - (-1)
Cooling Degree Days 12    
Growing Degree Days 28 (Base 50)    
Moisture  
Dew Point 74 °F    
Average Humidity 93    
Maximum Humidity 96    
Minimum Humidity 87    
Precipitation  
Precipitation 5.97 in - - ()
Sea Level Pressure  
Sea Level Pressure 29.86 in    
Wind  
Wind Speed 9 mph (ESE)    
Max Wind Speed 25 mph    
Max Gust Speed 33 mph    
Visibility 5 miles    
Events Rain , Thunderstorm    
Averages and records for this station are not official NWS values.
T = Trace of Precipitation, MM = Missing Value Source: NWS Daily Summary

Daily Weather History Graph

Daily Weather History Graph

Search for Another Location

Airport or City:

Astronomy

Sep. 17, 2019 Rise Set
Actual Time 7:06 AM CDT 7:23 PM CDT
Civil Twilight 6:42 AM CDT 7:47 PM CDT
Nautical Twilight 6:14 AM CDT 8:15 PM CDT
Astronomical Twilight 5:46 AM CDT 8:43 PM CDT
Moon 9:41 PM CDT (9/17) 10:00 AM CDT (9/17)
Length of Visible Light 13h 04m
Length of Day
12h 17m
Waning Gibbous, 89% of the Moon is Illuminated
Sep 17
Waning Gibbous
Sep 21
Last Quarter
Sep 28
New
Oct 5
First Quarter
Oct 13
Full

Hourly Weather History & Observations

Time (CDT) Temp. Heat Index Dew Point Humidity Pressure Visibility Wind Dir Wind Speed Gust Speed Precip Events Conditions
12:53 AM 75.9 °F - 73.9 °F 94% 29.91 in 10.0 mi NE 3.5 mph - N/A   Clear
1:53 AM 77.0 °F - 73.9 °F 90% 29.91 in 10.0 mi Calm Calm - N/A   Scattered Clouds
2:53 AM 78.1 °F - 75.0 °F 90% 29.90 in 10.0 mi NE 5.8 mph - N/A   Scattered Clouds
3:37 AM 77.0 °F - 73.9 °F 90% 29.89 in 10.0 mi ENE 8.1 mph - 0.01 in Thunderstorm Overcast
3:46 AM 77.0 °F - 73.9 °F 90% 29.90 in 7.0 mi ENE 5.8 mph - 0.01 in Rain Light Rain
3:51 AM 77.0 °F - 73.4 °F 89% 29.89 in 7.0 mi NE 6.9 mph - 0.01 in Rain , Thunderstorm Light Rain
3:53 AM 77.0 °F - 73.9 °F 90% 29.89 in 9.0 mi NE 6.9 mph - 0.01 in Rain , Thunderstorm Light Rain
4:08 AM 77.0 °F - 73.9 °F 90% 29.89 in 10.0 mi NE 5.8 mph - 0.00 in Rain Light Rain
4:15 AM 77.0 °F - 73.9 °F 90% 29.89 in 10.0 mi NE 5.8 mph - 0.00 in Rain Light Rain
4:49 AM 75.2 °F - 73.4 °F 94% 29.88 in 10.0 mi North 8.1 mph - 0.00 in   Mostly Cloudy
4:53 AM 75.9 °F - 73.0 °F 91% 29.88 in 9.0 mi NNE 10.4 mph - 0.00 in Rain Light Rain
5:01 AM 75.9 °F - 73.9 °F 94% 29.89 in 8.0 mi NE 6.9 mph - 0.01 in Rain Light Rain
5:08 AM 77.0 °F - 73.9 °F 90% 29.89 in 10.0 mi NE 8.1 mph - 0.01 in Rain Light Rain
5:20 AM 77.0 °F - 73.9 °F 90% 29.89 in 10.0 mi NE 6.9 mph - 0.01 in Rain Light Rain
5:53 AM 77.0 °F - 73.9 °F 90% 29.88 in 10.0 mi NE 6.9 mph - 0.01 in   Mostly Cloudy
6:10 AM 77.0 °F - 73.9 °F 90% 29.89 in 7.0 mi East 8.1 mph - 0.02 in   Overcast
6:17 AM 77.0 °F - 73.9 °F 90% 29.89 in 1.8 mi ENE 9.2 mph - 0.19 in Rain Heavy Rain
6:26 AM 77.0 °F - 73.9 °F 90% 29.89 in 2.0 mi NE 6.9 mph - 0.28 in Rain Heavy Rain
6:36 AM 75.9 °F - 73.9 °F 94% 29.89 in 3.0 mi NNE 6.9 mph - 0.33 in Rain Heavy Rain
6:53 AM 77.0 °F - 73.9 °F 90% 29.90 in 10.0 mi ENE 5.8 mph - 0.36 in Rain Light Rain
7:00 AM 77.0 °F - 75.0 °F 94% 29.90 in 9.0 mi ENE 6.9 mph - 0.01 in Rain , Thunderstorm Light Thunderstorms and Rain
7:15 AM 75.9 °F - 73.9 °F 94% 29.91 in 3.0 mi NE 6.9 mph - 0.08 in Rain Rain
7:53 AM 75.9 °F - 73.9 °F 94% 29.91 in 3.0 mi East 4.6 mph - 0.27 in Rain Heavy Rain
8:53 AM 75.9 °F - 73.9 °F 94% 29.91 in 5.0 mi ENE 5.8 mph - 0.22 in Rain Rain
9:35 AM 75.9 °F - 73.9 °F 94% 29.92 in 5.0 mi East 5.8 mph - 0.08 in Rain Light Rain
9:53 AM 75.9 °F - 73.0 °F 91% 29.92 in 10.0 mi East 6.9 mph - 0.08 in Rain Light Rain
10:03 AM 75.0 °F - 73.0 °F 94% 29.93 in 2.5 mi East 8.1 mph - 0.05 in Rain Rain
10:11 AM 75.0 °F - 73.0 °F 94% 29.93 in 1.5 mi East 6.9 mph - 0.09 in Rain Heavy Rain
10:15 AM 75.0 °F - 73.0 °F 94% 29.93 in 3.0 mi ENE 8.1 mph - 0.09 in Rain Rain
10:26 AM 75.9 °F - 73.0 °F 91% 29.93 in 10.0 mi East 6.9 mph - 0.09 in Rain Light Rain
10:30 AM 75.9 °F - 73.9 °F 94% 29.93 in 10.0 mi East 8.1 mph - 0.09 in Rain Light Rain
10:53 AM 75.9 °F - 73.9 °F 94% 29.92 in 9.0 mi East 8.1 mph - 0.10 in Rain Light Rain
11:50 AM 78.8 °F - 75.2 °F 89% 29.92 in 10.0 mi ENE 8.1 mph - 0.00 in Rain Light Rain
11:53 AM 78.1 °F - 75.0 °F 90% 29.92 in 10.0 mi East 9.2 mph - 0.00 in Rain Light Rain
12:53 PM 80.1 °F 85.8 °F 77.0 °F 90% 29.89 in 10.0 mi East 9.2 mph - 0.00 in Rain Light Rain
1:05 PM 80.1 °F 85.4 °F 75.9 °F 87% 29.89 in 10.0 mi East 12.7 mph - 0.00 in Rain Light Rain
1:53 PM 79.0 °F - 75.0 °F 88% 29.87 in 10.0 mi ENE 11.5 mph - 0.05 in   Overcast
2:03 PM 79.0 °F - 75.0 °F 88% 29.86 in 10.0 mi East 15.0 mph - N/A   Overcast
2:20 PM - - - N/A% 29.85 in 6.0 mi ENE 16.1 mph 23.0 mph 0.00 in Rain Light Rain
2:34 PM - - - N/A% 29.83 in 2.5 mi ENE 15.0 mph 26.5 mph 0.03 in Rain Light Rain
2:46 PM - - - N/A% 29.84 in 1.8 mi East 13.8 mph 24.2 mph 0.11 in Rain Heavy Rain
2:51 PM - - - N/A% 29.84 in 1.0 mi ESE 10.4 mph 19.6 mph 0.18 in Rain Heavy Rain
2:53 PM - - - N/A% 29.84 in 1.0 mi ESE 13.8 mph 19.6 mph 0.18 in Rain Heavy Rain
2:59 PM - - - N/A% 29.83 in 3.0 mi East 18.4 mph 24.2 mph 0.00 in Rain Light Rain
3:07 PM 75.9 °F - 73.0 °F 91% 29.82 in 5.0 mi East 13.8 mph 27.6 mph 0.00 in Rain Light Rain
3:14 PM 77.0 °F - 73.0 °F 88% 29.82 in 7.0 mi ESE 15.0 mph 24.2 mph 0.00 in Rain Light Rain
3:33 PM 77.0 °F - 73.9 °F 90% 29.80 in 1.8 mi East 11.5 mph 23.0 mph 0.07 in Rain Heavy Rain
3:40 PM 75.9 °F - 73.9 °F 94% 29.80 in 1.0 mi ESE 17.3 mph 25.3 mph 0.16 in Rain Heavy Rain
3:53 PM 75.0 °F - 73.0 °F 94% 29.79 in 2.0 mi East 19.6 mph 28.8 mph 0.23 in Rain Rain
4:02 PM 75.9 °F - 73.0 °F 91% 29.78 in 3.0 mi East 16.1 mph 27.6 mph 0.03 in Rain Rain
4:53 PM 77.0 °F - 73.9 °F 90% 29.77 in 6.0 mi ESE 17.3 mph 27.6 mph 0.12 in Rain Light Rain
5:00 PM 77.0 °F - 73.9 °F 90% 29.77 in 9.0 mi SE 21.9 mph 29.9 mph 0.00 in Rain Light Rain
5:25 PM 75.9 °F - 73.0 °F 91% 29.76 in 2.5 mi SE 17.3 mph 29.9 mph 0.03 in Rain Light Rain
5:35 PM 75.9 °F - 73.9 °F 94% 29.76 in 1.8 mi SE 12.7 mph 25.3 mph 0.07 in Rain Rain
5:45 PM 75.9 °F - 73.9 °F 94% 29.76 in 2.5 mi SSE 15.0 mph - 0.10 in Rain Rain
5:53 PM 75.9 °F - 73.9 °F 94% 29.76 in 2.0 mi SSE 12.7 mph - 0.15 in Rain Heavy Rain
6:53 PM 75.0 °F - 73.0 °F 94% 29.77 in 2.5 mi SSE 17.3 mph 29.9 mph 0.27 in Rain Rain
7:10 PM 75.0 °F - 73.9 °F 96% 29.77 in 1.2 mi SSE 18.4 mph 31.1 mph 0.22 in Rain Heavy Rain
7:51 PM 75.2 °F - 73.4 °F 94% 29.78 in 2.0 mi South 25.3 mph 33.4 mph 1.14 in Rain Heavy Rain
7:53 PM 75.0 °F - 73.9 °F 96% 29.79 in 2.0 mi South 20.7 mph 33.4 mph 1.16 in Rain Heavy Rain
8:08 PM 75.0 °F - 73.9 °F 96% 29.80 in 2.0 mi South 19.6 mph 32.2 mph 0.18 in Rain Heavy Rain
8:11 PM 75.0 °F - 73.9 °F 96% 29.80 in 1.8 mi South 18.4 mph 27.6 mph 0.24 in Rain Heavy Rain
8:21 PM 75.0 °F - 73.9 °F 96% 29.81 in 1.2 mi SSE 16.1 mph 28.8 mph 0.43 in Rain Heavy Rain
8:31 PM 75.0 °F - 73.9 °F 96% 29.82 in 3.0 mi South 17.3 mph 23.0 mph 0.50 in Rain Heavy Rain
8:48 PM 75.2 °F - 73.4 °F 94% 29.83 in 3.0 mi South 17.3 mph 27.6 mph 0.61 in Rain Heavy Rain
8:53 PM 75.0 °F - 73.9 °F 96% 29.83 in 3.0 mi South 20.7 mph 29.9 mph 0.66 in Rain Heavy Rain
8:57 PM 75.0 °F - 73.9 °F 96% 29.83 in 1.8 mi South 18.4 mph 29.9 mph 0.12 in Rain Heavy Rain
9:07 PM 75.0 °F - 73.9 °F 96% 29.84 in 2.0 mi South 20.7 mph 29.9 mph 0.23 in Rain Heavy Rain
9:33 PM 75.0 °F - 73.9 °F 96% 29.85 in 1.2 mi South 17.3 mph 28.8 mph 0.64 in Rain Heavy Rain
9:53 PM 75.0 °F - 73.9 °F 96% 29.85 in 2.0 mi South 15.0 mph 26.5 mph 0.88 in Rain Rain
10:02 PM 75.0 °F - 73.9 °F 96% 29.85 in 5.0 mi South 16.1 mph - 0.02 in Rain Rain
10:53 PM 75.0 °F - 73.9 °F 96% 29.86 in 2.5 mi South 13.8 mph 24.2 mph 0.29 in Rain Heavy Rain
11:04 PM 75.0 °F - 73.9 °F 96% 29.86 in 1.2 mi SSE 9.2 mph 19.6 mph 0.24 in Rain Heavy Rain
11:17 PM 75.0 °F - 73.9 °F 96% 29.86 in 1.5 mi SSE 9.2 mph 19.6 mph 0.43 in Rain Heavy Rain
11:42 PM 75.0 °F - 73.9 °F 96% 29.86 in 2.5 mi WSW 5.8 mph - 0.93 in Rain Light Rain
11:49 PM 75.2 °F - 73.4 °F 94% 29.86 in 8.0 mi South 10.4 mph 16.1 mph 0.93 in Rain Light Rain
11:53 PM 75.0 °F - 73.9 °F 96% 29.86 in 10.0 mi South 13.8 mph 25.3 mph 0.93 in   Overcast